Atqasuk Edward Burnell Sr Mem, AK

7:23 PM AKDT on July 23, 2019 (GMT -0800)
Atqasuk Edward Burnell Sr Mem

Weather History for PATQ - May, 2019

Change the Weather History Date:

Friday, May 3, 2019

  Actual Average (PABR) Record (PABR)
Temperature  
Mean Temperature 24 °F 14 °F  
Max Temperature 35 °F 19 °F 37 °F (1946)
Min Temperature 12 °F 8 °F -16 °F (1992)
Degree Days  
Heating Degree Days 42 51  
Month to date heating degree days 156  
Since 1 July heating degree days 17316  
Cooling Degree Days 0 0  
Month to date cooling degree days 0  
Year to date cooling degree days 0  
Moisture  
Dew Point 21 °F    
Average Humidity 91    
Maximum Humidity 100    
Minimum Humidity 85    
Precipitation  
Precipitation 0.05 in 0.00 in 0.30 in (1923)
Month to date precipitation 0.01  
Year to date precipitation 0.53  
Sea Level Pressure  
Sea Level Pressure 29.89 in    
Wind  
Wind Speed 14 mph (SE)    
Max Wind Speed 25 mph    
Max Gust Speed -    
Visibility 3 miles    
Events Fog , Rain , Snow    
T = Trace of Precipitation, MM = Missing Value Source: NWS Daily Summary

Daily Weather History Graph

Daily Weather History Graph

Search for Another Location

Airport or City:

Astronomy

May. 03, 2019 Rise Set
Actual Time 4:39 AM AKDT 12:19 AM AKDT
Civil Twilight Sun does not set Sun does not set
Nautical Twilight Sun does not set Sun does not set
Astronomical Twilight Sun does not set Sun does not set
Moon 6:27 AM AKDT (5/3) 9:40 PM AKDT (5/3)
Length of Visible Light 24h 00m
Length of Day
19h 39m
Waning Crescent, 1% of the Moon is Illuminated
May 3
Waning Crescent
May 4
New
May 11
First Quarter
May 18
Full
May 26
Last Quarter

Hourly Weather History & Observations

Time (AKDT) Temp. Windchill Dew Point Humidity Pressure Visibility Wind Dir Wind Speed Gust Speed Precip Events Conditions
12:47 AM 19.4 °F 3.2 °F 17.6 °F 93% 29.88 in 9.0 mi East 20.7 mph - 0.00 in   Scattered Clouds
12:56 AM 18.0 °F 0.6 °F 16.0 °F 92% 29.90 in 10.0 mi East 23.0 mph - 0.00 in   Partly Cloudy
1:52 AM 17.6 °F -0.3 °F 15.8 °F 93% 29.86 in 10.0 mi East 24.2 mph - N/A   Mostly Cloudy
1:56 AM 17.1 °F -1.4 °F 15.1 °F 92% 29.88 in 10.0 mi East 25.3 mph - N/A   Mostly Cloudy
2:56 AM 15.1 °F -2.5 °F 12.9 °F 91% 29.88 in 10.0 mi ENE 20.7 mph - N/A   Overcast
3:20 AM 14.0 °F -4.7 °F 12.2 °F 93% 29.85 in 10.0 mi ENE 23.0 mph - N/A   Overcast
3:56 AM 14.0 °F -4.7 °F 10.9 °F 88% 29.87 in 10.0 mi ENE 23.0 mph - N/A   Overcast
4:56 AM 12.9 °F -4.4 °F 10.0 °F 88% 29.87 in 10.0 mi ENE 18.4 mph - N/A   Overcast
5:56 AM 12.0 °F -3.4 °F 10.0 °F 92% 29.87 in 8.0 mi ENE 13.8 mph - N/A   Overcast
6:16 AM 12.2 °F -1.8 °F 10.4 °F 92% 29.85 in 3.0 mi ENE 11.5 mph - N/A   Overcast
6:22 AM 12.2 °F -2.5 °F 10.4 °F 92% 29.85 in 1.8 mi ENE 12.7 mph - N/A   Overcast
6:31 AM 12.2 °F -3.1 °F 10.4 °F 92% 29.85 in 0.8 mi ENE 13.8 mph - N/A   Overcast
6:56 AM 12.9 °F -0.9 °F 10.9 °F 92% 29.87 in 1.0 mi ENE 11.5 mph - N/A   Overcast
7:04 AM 12.2 °F -0.2 °F 10.4 °F 92% 29.84 in 0.8 mi ENE 9.2 mph - N/A   Overcast
7:17 AM 12.2 °F -1.0 °F 12.2 °F 100% 29.84 in 0.5 mi East 10.4 mph - N/A Fog Light Freezing Fog
7:31 AM 14.0 °F 1.2 °F 12.2 °F 93% 29.84 in 0.2 mi East 10.4 mph - 0.00 in Fog , Snow Light Snow
7:53 AM 14.0 °F 2.0 °F 12.2 °F 93% 29.84 in 0.5 mi East 9.2 mph - 0.00 in Fog , Snow Light Snow
7:56 AM 14.0 °F 2.0 °F 12.0 °F 92% 29.86 in 0.5 mi East 9.2 mph - 0.00 in Fog Light Freezing Fog
8:12 AM 15.8 °F 5.1 °F 12.2 °F 86% 29.84 in 0.8 mi East 8.1 mph - N/A   Overcast
8:23 AM 15.8 °F 6.1 °F 14.0 °F 93% 29.84 in 0.5 mi ESE 6.9 mph - N/A Fog Light Freezing Fog
8:33 AM 15.8 °F 6.1 °F 14.0 °F 93% 29.84 in 0.8 mi East 6.9 mph - N/A   Overcast
8:41 AM 15.8 °F 7.2 °F 14.0 °F 93% 29.84 in 0.5 mi East 5.8 mph - N/A Fog Light Freezing Fog
8:56 AM 17.1 °F 8.7 °F 15.1 °F 92% 29.86 in 0.5 mi ESE 5.8 mph - N/A Fog Light Freezing Fog
9:11 AM 17.6 °F 5.7 °F 15.8 °F 93% 29.84 in 0.8 mi ESE 10.4 mph - N/A   Overcast
9:56 AM 17.1 °F 5.0 °F 15.1 °F 92% 29.87 in 0.8 mi SE 10.4 mph - N/A   Overcast
10:03 AM 17.6 °F 6.4 °F 15.8 °F 93% 29.85 in 1.0 mi SE 9.2 mph - N/A   Overcast
10:14 AM 17.6 °F 7.3 °F 15.8 °F 93% 29.85 in 1.5 mi SE 8.1 mph - N/A   Overcast
10:29 AM 17.6 °F 5.7 °F 15.8 °F 93% 29.85 in 3.0 mi South 10.4 mph - N/A   Overcast
10:56 AM 18.0 °F 8.7 °F 16.0 °F 92% 29.88 in 3.0 mi SSE 6.9 mph - 0.00 in Snow Light Snow
11:39 AM 19.4 °F 9.5 °F 17.6 °F 93% 29.86 in 2.0 mi SSE 8.1 mph - 0.00 in   Overcast
11:56 AM 19.9 °F 7.9 °F 17.1 °F 89% 29.88 in 5.0 mi South 11.5 mph - 0.00 in   Overcast
12:07 PM 19.4 °F 7.2 °F 17.6 °F 93% 29.86 in 1.5 mi South 11.5 mph - N/A   Overcast
12:32 PM 21.2 °F 8.9 °F 19.4 °F 93% 29.87 in 3.0 mi SSE 12.7 mph - N/A   Overcast
12:56 PM 21.9 °F 9.8 °F 19.0 °F 89% 29.90 in 5.0 mi SE 12.7 mph - N/A   Overcast
1:24 PM 23.0 °F 11.7 °F 19.4 °F 86% 29.88 in 10.0 mi SE 11.5 mph - N/A   Mostly Cloudy
1:32 PM 23.0 °F 10.1 °F 19.4 °F 86% 29.88 in 10.0 mi SE 15.0 mph - N/A   Partly Cloudy
1:56 PM 23.0 °F 10.6 °F 19.9 °F 88% 29.90 in 9.0 mi SE 13.8 mph - 0.00 in Snow Light Snow
2:13 PM 24.8 °F 13.4 °F 21.2 °F 86% 29.88 in 1.8 mi SE 12.7 mph - 0.00 in Snow Light Snow
2:17 PM 24.8 °F 12.4 °F 21.2 °F 86% 29.88 in 1.0 mi SE 15.0 mph - 0.00 in Snow Light Snow
2:22 PM 24.8 °F 12.4 °F 21.2 °F 86% 29.88 in 0.8 mi SE 15.0 mph - 0.00 in Snow Light Snow
2:35 PM 24.8 °F 12.4 °F 23.0 °F 93% 29.89 in 0.5 mi SE 15.0 mph - 0.00 in Fog , Snow Snow
2:56 PM 27.0 °F 15.2 °F 25.0 °F 92% 29.91 in 0.5 mi SSE 15.0 mph - 0.00 in Fog , Snow Snow
3:05 PM 26.6 °F 15.2 °F 26.6 °F 100% 29.90 in 0.8 mi SSE 13.8 mph - 0.00 in Snow Light Snow
3:44 PM 28.4 °F 19.1 °F 26.6 °F 93% 29.90 in 0.5 mi SSE 10.4 mph - 0.00 in Fog , Snow Snow
3:56 PM 28.9 °F 19.8 °F 27.0 °F 92% 29.93 in 0.5 mi South 10.4 mph - 0.01 in Fog , Snow Snow
4:22 PM 30.2 °F 22.6 °F 28.4 °F 93% 29.91 in 0.8 mi SSE 8.1 mph - 0.01 in Snow Light Snow
4:56 PM 32.0 °F 26.4 °F 28.9 °F 88% 29.94 in 1.0 mi SSE 5.8 mph - 0.02 in Snow Light Snow
5:15 PM 33.8 °F 28.6 °F 30.2 °F 87% 29.91 in 1.0 mi SE 5.8 mph - 0.00 in Snow Light Snow
5:23 PM 33.8 °F 28.6 °F 30.2 °F 87% 29.91 in 1.5 mi SE 5.8 mph - 0.00 in Snow Light Snow
5:30 PM 33.8 °F 28.6 °F 30.2 °F 87% 29.91 in 1.2 mi SE 5.8 mph - 0.00 in Snow Light Snow
5:56 PM 35.1 °F 28.6 °F 30.9 °F 85% 29.94 in 1.8 mi SE 8.1 mph - 0.00 in Snow Light Snow
6:00 PM 35.6 °F 29.2 °F 32.0 °F 87% 29.92 in 2.0 mi SE 8.1 mph - 0.00 in Snow Light Snow
6:14 PM 35.6 °F 28.6 °F 32.0 °F 87% 29.92 in 4.0 mi SE 9.2 mph - 0.00 in Snow Light Snow
6:56 PM 34.0 °F 26.0 °F 32.0 °F 92% 29.95 in 6.0 mi SE 10.4 mph - 0.00 in Snow Light Snow
7:56 PM 34.0 °F 26.6 °F 32.0 °F 92% 29.95 in 10.0 mi SE 9.2 mph - 0.00 in Rain Light Rain
8:53 PM 33.8 °F 26.4 °F 32.0 °F 93% 29.93 in 1.8 mi SSE 9.2 mph - 0.01 in Snow Light Snow
8:56 PM 33.1 °F 24.9 °F 32.0 °F 96% 29.95 in 1.5 mi SSE 10.4 mph - 0.01 in Snow Light Snow
9:15 PM 33.8 °F 25.3 °F 30.2 °F 87% 29.93 in 2.0 mi SSE 11.5 mph - 0.00 in Snow Light Snow
9:29 PM 33.8 °F 25.3 °F 30.2 °F 87% 29.93 in 1.5 mi SSE 11.5 mph - 0.00 in Snow Light Snow
9:49 PM 33.8 °F 25.3 °F 30.2 °F 87% 29.94 in 2.0 mi SSE 11.5 mph - 0.00 in Snow Light Snow
9:56 PM 33.1 °F 24.4 °F 30.9 °F 92% 29.96 in 1.8 mi SSE 11.5 mph - 0.00 in Snow Light Snow
10:12 PM 33.8 °F 25.3 °F 30.2 °F 87% 29.94 in 2.5 mi SSE 11.5 mph - 0.00 in Snow Light Snow
10:20 PM 32.0 °F 23.0 °F 30.2 °F 93% 29.94 in 3.0 mi SSE 11.5 mph - 0.00 in Snow Light Snow
10:42 PM 32.0 °F 22.5 °F 30.2 °F 93% 29.94 in 5.0 mi SSE 12.7 mph - 0.00 in Snow Light Snow
10:56 PM 32.0 °F 22.5 °F 30.9 °F 96% 29.97 in 6.0 mi SSE 12.7 mph - 0.00 in Snow Light Snow
11:56 PM 32.0 °F 22.5 °F 32.0 °F 100% 29.98 in 10.0 mi SE 12.7 mph - 0.01 in   Clear